Theta_e
315 314 314 318 316 318 319 323 324 320 320 323 325 324 322 315 319 322 322 326 330 333 332 333 333 335 335 327 326 326 327 327 328 328 328 328 328 328 328 329 331 331 331 331
313 316 315 316 317 319 318 319 319 318 319 322 323 323 322 318 314 318 320 327 329 328 328 331 333 334 335 333 330 329 328 328 327 327 327 327 328 329 333 331 332 332 332 332
316 315 314 315 318 318 317 317 319 320 317 318 321 322 322 312 309 309 308 307 312 317 328 329 329 330 332 333 333 334 333 333 330 329 328 328 330 333 332 332 332 332 332 332
310 314 314 314 317 317 318 315 315 317 317 321 316 324 316 314 306 306 306 307 306 309 311 313 317 323 324 322 328 330 332 332 332 331 331 332 334 333 333 332 332 332 332 332
308 315 314 313 314 315 316 315 315 316 317 316 316 319 317 314 306 306 303 304 305 305 305 309 310 312 314 316 321 322 326 328 328 331 333 334 334 334 333 332 331 330 330 331
310 309 311 310 312 313 314 315 315 315 318 320 319 317 319 313 310 307 304 303 304 306 306 306 307 310 311 312 313 313 314 315 320 323 326 328 331 331 328 329 328 327 325 325
308 309 309 309 311 310 311 313 312 317 320 322 317 317 313 308 307 305 305 306 304 306 307 307 307 307 308 309 310 312 312 312 311 312 314 317 320 322 322 321 319 316 315 317
311 308 310 309 311 312 312 312 308 313 319 316 315 322 315 308 306 305 306 306 307 307 307 308 308 308 308 309 309 309 311 310 310 311 311 311 311 312 312 312 312 313 315 317
315 312 309 309 310 310 312 312 312 312 304 312 311 307 307 307 307 306 307 306 306 306 307 309 308 308 308 308 308 308 309 309 309 310 310 311 311 312 312 312 313 314 315 316
312 314 310 310 309 309 310 309 310 306 307 314 313 308 309 308 307 306 306 306 306 306 306 307 308 308 307 307 307 307 307 307 307 309 309 310 311 311 312 313 312 312 312 313
309 312 311 309 310 311 310 310 311 310 311 314 313 307 305 307 307 307 306 305 304 304 305 305 306 308 307 306 306 305 305 305 305 305 305 305 306 308 309 310 311 312 312 311
308 310 313 312 309 309 310 310 310 308 311 310 311 307 304 306 306 306 305 304 303 302 302 304 306 307 307 306 305 305 305 304 304 304 303 303 303 304 305 306 307 307 308 307
309 308 303 302 306 307 310 311 311 309 308 311 309 308 304 306 305 305 303 303 303 302 302 302 303 305 306 306 306 305 304 304 304 303 303 302 302 302 302 302 303 303 303 303
306 307 304 303 306 308 309 310 310 309 306 311 311 310 307 308 305 303 302 301 302 302 301 300 301 302 303 305 306 305 304 304 304 303 303 303 302 302 302 302 301 301 301 301
304 298 301 303 302 305 306 308 309 312 309 307 308 311 309 308 304 303 301 302 301 300 299 298 298 299 301 302 303 304 305 304 304 303 303 303 302 302 302 301 301 301 301 300
301 294 298 297 300 300 303 302 302 304 308 309 309 309 306 305 301 300 300 302 300 300 299 298 297 298 300 300 300 301 303 304 304 303 303 302 302 301 301 300 300 300 300 299
300 292 287 292 295 292 290 294 300 302 303 306 308 305 302 300 299 302 301 299 299 299 298 297 297 298 299 299 298 299 301 303 303 303 303 303 302 301 300 300 299 299 298 298
296 288 284 288 284 289 295 294 297 299 300 300 300 300 301 297 300 300 299 298 298 298 298 297 297 298 298 298 298 298 299 301 302 302 303 302 301 301 300 300 299 299 298 297
298 297 289 289 280 292 296 297 298 299 297 297 297 297 297 299 297 300 299 299 299 298 298 298 297 297 297 297 297 297 298 299 301 301 301 301 301 300 299 299 298 298 297 296
298 296 290 287 287 288 295 299 298 296 295 296 297 298 299 298 295 294 295 297 296 297 297 297 297 296 296 296 296 296 297 297 298 299 300 300 300 300 299 298 297 296 297 295
290 298 290 282 284 290 294 296 296 294 295 297 298 298 298 297 295 296 295 295 297 297 297 297 296 295 295 295 295 295 296 296 296 297 298 298 298 298 298 297 296 297 296 295
295 292 295 298 291 293 295 297 298 296 296 298 298 298 298 296 296 296 295 294 295 295 297 297 296 296 296 295 294 294 294 294 295 295 296 295 295 295 295 295 295 295 295 294
294 294 294 294 295 295 295 297 296 295 296 297 298 296 296 295 295 295 295 294 295 295 296 296 296 295 295 294 293 293 294 294 294 293 293 294 294 295 295 294 293 292 292 291
295 293 295 297 296 296 295 296 295 296 296 295 295 295 294 294 294 294 293 292 293 295 295 295 295 294 294 294 293 293 293 293 293 293 293 294 294 295 295 296 293 293 293 292
294 294 294 294 295 294 294 294 294 294 293 293 292 293 294 293 293 292 292 292 294 294 295 295 295 295 295 294 293 293 292 292 292 293 293 293 292 292 294 294 293 292 293 291
293 295 297 297 295 296 296 295 295 295 295 294 293 293 293 292 292 292 291 294 294 294 295 294 295 295 296 295 295 294 293 292 291 292 293 294 294 292 290 289 290 289 289 288
Wind_Speed
3 4 6 8 6 7 7 10 12 4 5 3 11 2 10 11 1 5 5 8 9 12 11 22 27 25 17 30 33 34 32 30 28 28 25 23 24 23 22 21 18 17 17 18
3 7 9 4 5 10 11 12 5 4 3 6 1 6 5 18 5 6 8 2 5 3 7 11 20 26 23 26 30 30 31 30 30 30 28 26 25 21 20 18 20 20 20 20
5 2 5 2 6 11 9 6 8 7 2 5 4 2 4 17 11 10 10 6 8 6 2 1 5 10 15 17 23 26 28 30 30 30 27 23 20 21 17 18 20 21 21 21
3 2 1 4 1 6 4 5 3 10 6 3 2 2 4 10 6 8 8 9 8 7 7 8 9 6 8 8 9 9 17 22 26 24 25 24 20 18 22 18 15 14 15 15
2 1 4 3 0 1 2 3 3 5 6 7 5 2 2 7 6 5 7 8 8 7 5 5 6 7 7 4 7 4 6 9 9 13 21 24 22 20 15 12 13 12 11 12
1 2 1 3 4 3 2 3 7 5 3 3 1 2 3 3 6 7 6 7 7 8 7 6 6 6 7 5 5 4 4 4 5 7 8 10 11 11 12 14 13 13 11 12
6 4 4 3 4 4 4 3 2 3 1 1 4 6 1 6 5 4 5 7 7 6 6 6 7 9 7 5 3 1 2 1 1 2 4 6 8 10 11 11 11 10 9 8
2 5 5 6 1 2 3 2 3 5 3 3 3 2 3 3 3 4 2 2 5 7 6 6 5 5 5 4 3 3 2 1 1 2 3 4 5 6 7 7 7 7 6 6
3 2 1 1 3 2 4 2 2 5 3 4 3 2 3 3 2 4 6 6 7 6 5 5 5 5 5 4 4 2 0 1 2 3 3 3 4 4 4 4 5 5 4 4
2 2 2 2 3 1 2 2 3 3 3 3 2 1 6 2 0 3 5 5 5 5 6 5 5 4 4 3 3 2 0 1 2 3 3 4 5 5 6 5 5 5 5 4
2 1 3 3 3 2 5 4 3 3 2 2 4 1 4 5 4 4 5 5 5 5 5 4 5 4 4 4 3 2 1 2 4 5 5 5 5 5 5 6 6 6 6 5
3 2 1 1 4 3 2 3 2 3 3 2 2 2 6 4 2 3 4 5 5 5 7 6 7 5 5 6 6 5 3 3 5 5 6 7 6 6 6 6 6 6 5 5
2 1 1 7 5 5 5 4 2 4 2 2 3 3 5 4 2 4 5 6 6 7 8 7 10 9 7 6 6 6 6 6 6 6 5 3 5 7 7 7 7 7 6 6
4 2 3 4 2 1 2 2 3 3 3 1 2 2 4 6 7 6 6 6 6 7 7 7 9 13 16 11 8 7 8 8 9 9 9 9 9 7 6 7 8 8 8 7
3 3 1 3 4 2 1 1 1 2 2 4 4 2 4 3 2 2 2 3 6 6 7 7 7 10 18 19 17 11 10 9 10 11 11 11 10 10 10 11 11 11 10 9
2 1 2 4 5 5 3 4 3 0 2 4 4 6 4 3 2 2 3 5 6 6 6 7 7 13 16 19 19 18 14 12 12 13 14 12 12 12 11 11 11 11 12 11
3 3 3 3 4 5 5 4 4 2 3 4 4 6 3 3 5 1 3 5 5 6 5 7 8 14 19 20 19 19 18 15 13 17 17 16 15 14 13 12 11 9 9 11
3 3 2 2 4 2 5 3 6 6 5 6 4 5 6 5 1 4 4 4 6 6 6 7 11 16 19 21 21 20 17 16 14 15 18 16 16 16 17 16 12 9 8 8
1 4 3 3 3 5 4 3 3 4 4 6 6 2 3 3 3 1 1 2 1 4 7 9 12 15 18 19 20 21 20 16 13 13 14 16 17 17 17 15 14 12 10 8
2 5 4 3 4 4 4 2 1 3 4 2 3 4 5 3 2 4 5 3 6 8 8 9 12 13 15 17 18 19 19 17 14 11 11 11 15 16 16 14 12 11 11 10
2 1 4 1 1 7 8 6 3 6 5 1 4 4 4 2 4 4 5 6 11 13 13 12 12 12 12 14 14 15 15 14 14 9 6 7 10 12 13 15 17 13 11 10
5 5 3 2 2 7 5 5 5 5 2 1 1 1 1 4 6 6 7 7 11 14 15 15 14 13 12 12 12 12 11 10 7 2 2 5 7 9 10 11 13 13 14 14
3 5 5 8 6 5 5 4 3 2 1 3 2 5 6 6 6 6 7 7 12 16 14 13 12 12 9 7 7 7 6 4 2 2 4 6 7 8 8 8 10 13 14 15
4 4 2 3 5 9 8 6 4 3 6 6 6 7 5 8 8 7 7 8 12 16 16 14 12 12 10 6 4 4 2 1 2 4 6 9 9 11 12 8 8 9 10 12
4 6 5 5 5 7 9 7 6 8 4 5 6 6 7 7 9 8 7 9 17 20 19 16 16 16 13 8 6 5 4 6 7 7 8 7 7 8 10 10 11 14 14 15
5 7 6 5 7 4 6 4 4 5 6 8 7 6 7 9 9 10 7 20 21 22 20 16 18 17 15 12 9 9 9 11 12 12 12 11 10 11 10 9 11 10 10 12
Wind_Direction
66 18 22 84 134 112 104 113 99 56 1 79 215 271 314 335 309 151 177 208 198 197 204 206 213 212 209 204 203 206 207 212 212 212 212 214 218 225 237 246 253 258 259 260
60 24 359 31 129 136 106 102 65 67 13 53 354 197 305 315 315 47 12 298 266 230 187 201 208 210 212 201 202 204 208 210 213 213 213 213 220 233 241 246 249 252 254 255
51 70 38 88 40 88 64 102 137 116 58 41 95 284 354 336 12 38 37 23 26 348 284 244 163 195 200 201 207 207 209 211 212 213 215 219 229 232 236 241 251 255 257 258
32 2 0 44 80 337 73 321 90 130 141 115 339 155 80 313 58 7 29 25 16 14 14 22 23 66 120 133 148 185 210 212 212 213 216 216 215 219 235 244 244 247 252 254
295 218 318 324 201 242 203 304 27 83 92 115 6 88 45 325 9 353 6 14 5 12 29 30 36 82 100 126 150 179 186 173 176 207 222 223 219 228 228 230 241 255 245 243
41 161 204 311 6 346 45 15 33 58 46 68 181 91 42 2 294 316 352 2 356 356 8 17 42 52 63 75 86 142 212 191 194 214 214 208 211 211 215 237 243 247 252 253
6 347 342 59 14 348 5 39 32 40 59 126 199 82 211 223 247 282 327 345 8 4 10 12 19 19 17 2 355 303 238 106 135 196 207 220 221 224 230 229 237 244 244 236
17 351 9 348 1 310 244 180 163 153 156 123 355 118 198 239 316 348 3 348 7 2 359 0 15 21 17 13 346 314 293 263 212 201 208 213 218 220 222 227 227 228 224 224
357 339 321 34 336 12 300 319 213 107 29 87 154 89 129 246 24 26 23 19 356 349 347 338 341 0 9 13 4 360 294 211 206 195 189 183 179 179 182 183 183 185 193 207
24 320 345 299 356 295 194 287 5 11 92 88 100 104 145 161 93 349 27 27 3 339 341 322 308 325 347 345 340 357 190 161 171 176 165 161 157 162 162 156 165 159 163 167
1 340 328 36 39 347 345 359 28 100 82 146 126 248 173 159 178 82 23 13 356 353 343 326 320 331 328 311 299 294 271 226 200 193 184 175 171 171 166 161 157 148 149 152
319 76 61 314 295 289 254 332 77 96 301 3 82 196 143 127 337 131 65 19 9 5 354 346 355 350 331 318 309 293 262 237 246 231 206 184 184 176 174 169 153 149 142 144
189 14 21 350 353 4 43 354 49 101 67 352 90 210 145 106 7 7 42 35 27 21 14 10 16 6 348 327 307 287 267 245 220 218 233 203 203 198 178 170 160 153 155 154
73 44 150 176 212 273 11 35 17 74 94 196 221 79 172 354 358 31 35 23 27 25 17 10 13 10 13 359 329 297 273 255 237 224 217 205 207 214 201 188 174 165 163 161
109 117 51 35 6 17 323 303 55 157 173 147 261 212 246 312 346 68 54 66 64 28 18 11 4 359 8 10 9 341 296 270 256 246 234 231 222 212 205 203 190 179 174 172
31 166 83 351 354 14 300 279 264 52 267 280 275 286 261 299 16 30 23 88 61 30 9 355 352 358 359 358 353 348 341 299 266 251 250 243 234 225 213 212 206 191 180 173
65 117 71 262 343 347 347 220 212 172 189 160 180 235 348 326 332 61 81 57 35 12 356 351 343 343 346 347 345 340 330 321 280 255 249 239 231 226 215 208 212 209 194 182
119 83 60 201 16 30 247 281 220 189 212 217 240 230 219 248 225 91 95 81 20 349 334 334 339 340 341 338 338 333 331 324 300 268 256 246 233 225 218 205 203 205 209 203
43 114 84 123 179 293 329 335 144 173 279 201 225 253 245 107 88 341 112 41 311 299 310 314 331 330 331 337 335 331 330 327 314 291 272 253 236 226 216 208 190 189 194 200
58 80 112 78 119 205 245 285 87 100 319 321 189 140 149 105 49 265 264 281 301 328 332 324 332 334 337 342 338 333 333 329 322 307 290 266 235 218 210 201 188 185 178 195
82 133 151 158 192 286 243 240 350 82 238 262 154 172 175 158 195 237 285 289 314 321 328 331 333 338 342 343 343 338 335 335 327 312 276 225 215 216 206 189 182 172 181 186
164 143 181 115 89 282 186 59 172 208 197 283 226 263 285 272 298 286 293 286 303 307 316 326 325 328 336 341 345 342 338 341 341 323 191 179 183 178 176 185 178 166 174 179
194 180 177 184 210 237 221 216 227 139 201 278 236 260 247 257 255 272 274 287 290 297 294 308 304 304 312 320 335 331 341 354 25 117 133 136 140 139 144 159 175 172 178 180
241 177 202 126 249 234 240 253 235 231 239 262 263 265 265 257 272 263 269 274 278 282 286 295 292 279 280 287 297 300 289 249 181 161 170 161 163 162 156 147 198 199 218 219
202 138 194 260 279 292 264 240 257 279 259 252 252 227 244 242 258 246 259 269 276 278 287 284 274 261 259 253 254 256 242 212 218 176 177 193 208 211 201 202 216 229 237 234
188 188 194 232 193 209 255 204 197 228 252 254 259 281 256 230 248 255 253 269 273 278 286 279 271 259 255 247 242 230 227 224 218 204 193 201 213 229 233 228 217 219 227 230